H1 CPF 2 NER 2024 9 12 9 256 01 glonass146 H2 2216101 9146 54377 2024 9 12 0 0 0 2024 9 15 23 45 0 900 1 1 0 0 0 1 H9 10 0 60565 0.00000 0 6490824.299 -8809945.187 23055922.442 10 0 60565 900.00000 0 8643327.004 -6961143.822 22978526.536 10 0 60565 1800.00000 0 10896050.669 -5296620.161 22455422.835 10 0 60565 2700.00000 0 13188378.036 -3850693.040 21496597.290 10 0 60565 3600.00000 0 15455300.486 -2646138.245 20120489.385 10 0 60565 4500.00000 0 17629967.565 -1693431.745 18353649.307 10 0 60565 5400.00000 0 19646333.380 -990518.611 16230237.374 10 0 60565 6300.00000 0 21441790.241 -523117.464 13791374.048 10 0 60565 7200.00000 0 22959679.673 -265547.918 11084351.843 10 0 60565 8100.00000 0 24151575.495 -182046.413 8161723.422 10 0 60565 9000.00000 0 24979242.541 -228514.946 5080282.898 10 0 60565 9900.00000 0 25416187.790 -354628.635 1899959.968 10 0 60565 10800.00000 0 25448737.590 -506212.374 -1317351.367 10 0 60565 11700.00000 0 25076594.476 -627784.994 -4509006.052 10 0 60565 12600.00000 0 24312849.250 -665161.850 -7612838.480 10 0 60565 13500.00000 0 23183447.136 -568003.943 -10568385.045 10 0 60565 14400.00000 0 21726130.268 -292203.871 -13318073.590 10 0 60565 15300.00000 0 19988901.160 197994.242 -15808355.260 10 0 60565 16200.00000 0 18028072.301 928232.178 -17990755.632 10 0 60565 17100.00000 0 15905984.549 1912708.415 -19822823.890 10 0 60565 18000.00000 0 13688490.969 3153339.530 -21268961.099 10 0 60565 18900.00000 0 11442312.389 4639448.485 -22301111.418 10 0 60565 19800.00000 0 9232375.961 6347993.480 -22899303.120 10 0 60565 20700.00000 0 7119248.327 8244328.079 -23052029.444 10 0 60565 21600.00000 0 5156770.463 10283460.886 -22756462.667 10 0 60565 22500.00000 0 3389992.292 12411762.006 -22018498.096 10 0 60565 23400.00000 0 1853492.179 14569044.846 -20852628.008 10 0 60565 24300.00000 0 570149.904 16690936.238 -19281648.823 10 0 60565 25200.00000 0 -449577.561 18711435.914 -17336207.875 10 0 60565 26100.00000 0 -1207849.306 20565558.616 -15054199.179 10 0 60565 27000.00000 0 -1719096.906 22191948.802 -12480020.371 10 0 60565 27900.00000 0 -2009160.628 23535359.221 -9663705.519 10 0 60565 28800.00000 0 -2113943.632 24548890.365 -6659950.899 10 0 60565 29700.00000 0 -2077642.497 25195897.931 -3527052.739 10 0 60565 30600.00000 0 -1950629.897 25451489.319 -325777.551 10 0 60565 31500.00000 0 -1787079.626 25303547.387 2881813.037 10 0 60565 32400.00000 0 -1642434.685 24753239.407 6033560.330 10 0 60565 33300.00000 0 -1570825.537 23814990.617 9068406.569 10 0 60565 34200.00000 0 -1622547.401 22515923.917 11927570.051 10 0 60565 35100.00000 0 -1841702.875 20894789.419 14555675.166 10 0 60565 36000.00000 0 -2264109.047 19000428.474 16901816.200 10 0 60565 36900.00000 0 -2915557.199 16889835.942 18920535.059 10 0 60565 37800.00000 0 -3810498.482 14625900.853 20572694.872 10 0 60565 38700.00000 0 -4951211.309 12274918.621 21826233.368 10 0 60565 39600.00000 0 -6327486.302 9903977.299 22656782.143 10 0 60565 40500.00000 0 -7916843.348 7578325.341 23048140.277 10 0 60565 41400.00000 0 -9685273.388 5358829.103 22992593.369 10 0 60565 42300.00000 0 -11588475.880 3299624.687 22491071.573 10 0 60565 43200.00000 0 -13573542.378 1446060.821 21553143.081 10 0 60565 44100.00000 0 -15581018.006 -166982.290 20196842.244 10 0 60565 45000.00000 0 -17547256.577 -1516328.541 18448334.510 10 0 60565 45900.00000 0 -19406972.511 -2591244.544 16341423.317 10 0 60565 46800.00000 0 -21095883.895 -3393650.446 13916907.079 10 0 60565 47700.00000 0 -22553336.507 -3937793.966 11221797.498 10 0 60565 48600.00000 0 -23724798.796 -4249401.266 8308413.295 10 0 60565 49500.00000 0 -24564122.518 -4364340.401 5233366.300 10 0 60565 50400.00000 0 -25035473.029 -4326853.911 2056459.369 10 0 60565 51300.00000 0 -25114846.794 -4187435.745 -1160482.209 10 0 60565 52200.00000 0 -24791110.860 -4000443.168 -4354822.428 10 0 60565 53100.00000 0 -24066519.225 -3821545.926 -7464344.765 10 0 60565 54000.00000 0 -22956683.316 -3705122.205 -10428475.647 10 0 60565 54900.00000 0 -21489997.104 -3701713.335 -13189476.042 10 0 60565 55800.00000 0 -19706540.745 -3855646.746 -15693576.591 10 0 60565 56700.00000 0 -17656508.954 -4202929.429 -17892033.135 10 0 60565 57600.00000 0 -15398230.506 -4769502.444 -19742081.251 10 0 60565 58500.00000 0 -12995862.568 -5569931.384 -21207770.761 10 0 60565 59400.00000 0 -10516857.117 -6606588.924 -22260663.938 10 0 60565 60300.00000 0 -8029305.958 -7869364.464 -22880384.089 10 0 60565 61200.00000 0 -5599275.656 -9335913.336 -23055004.421 10 0 60565 62100.00000 0 -3288243.530 -10972435.176 -22781270.401 10 0 60565 63000.00000 0 -1150741.196 -12734948.712 -22064652.130 10 0 60565 63900.00000 0 767696.999 -14571009.336 -20919226.615 10 0 60565 64800.00000 0 2432196.526 -16421797.360 -19367393.031 10 0 60565 65700.00000 0 3819748.601 -18224489.416 -17439427.201 10 0 60565 66600.00000 0 4919911.231 -19914813.742 -15172884.559 10 0 60565 67500.00000 0 5734978.299 -21429682.522 -12611863.590 10 0 60565 68400.00000 0 6279611.931 -22709791.406 -9806144.396 10 0 60565 69300.00000 0 6579955.709 -23702077.731 -6810219.303 10 0 60565 70200.00000 0 6672267.975 -24361935.067 -3682234.465 10 0 60565 71100.00000 0 6601134.307 -24655091.891 -482862.998 10 0 60565 72000.00000 0 6417335.729 -24559076.323 2725868.497 10 0 60565 72900.00000 0 6175463.316 -24064206.143 5881777.428 10 0 60565 73800.00000 0 5931380.265 -23174063.136 8923723.809 10 0 60565 74700.00000 0 5739638.594 -21905432.195 11792787.074 10 0 60565 75600.00000 0 5650959.303 -20287707.866 14433398.904 10 0 60565 76500.00000 0 5709881.960 -18361792.918 16794410.816 10 0 60565 77400.00000 0 5952682.486 -16178534.461 18830076.605 10 0 60565 78300.00000 0 6405646.638 -13796762.041 20500931.497 10 0 60565 79200.00000 0 7083771.932 -11281008.349 21774551.807 10 0 60565 80100.00000 0 7989953.000 -8699006.164 22626181.081 10 0 60565 81000.00000 0 9114685.423 -6119064.150 23039211.095 10 0 60565 81900.00000 0 10436301.787 -3607429.153 23005508.608 10 0 60565 82800.00000 0 11921731.657 -1225743.212 22525581.358 10 0 60565 83700.00000 0 13527755.564 971300.205 21608579.570 10 0 60565 84600.00000 0 15202702.501 2938004.291 20272132.069 10 0 60565 85500.00000 0 16888521.753 4639336.658 18542018.999 10 0 60566 0.00000 0 18523143.837 6052147.584 16451686.375 10 0 60566 900.00000 0 20043033.740 7165888.688 14041609.265 10 0 60566 1800.00000 0 21385827.926 7982800.149 11358517.594 10 0 60566 2700.00000 0 22492947.498 8517561.037 8454494.786 10 0 60566 3600.00000 0 23312075.090 8796415.494 5385968.770 10 0 60566 4500.00000 0 23799391.255 8855812.499 2212613.688 10 0 60566 5400.00000 0 23921474.778 8740616.869 -1003815.993 10 0 60566 6300.00000 0 23656785.349 8501967.793 -4200695.619 10 0 60566 7200.00000 0 22996664.589 8194876.515 -7315760.184 10 0 60566 8100.00000 0 21945811.837 7875666.165 -10288328.641 10 0 60566 9000.00000 0 20522213.552 7599363.702 -13060497.550 10 0 60566 9900.00000 0 18756528.520 7417155.973 -15578279.454 10 0 60566 10800.00000 0 16690954.382 7374019.169 -17792662.748 10 0 60566 11700.00000 0 14377623.069 7506623.343 -19660571.574 10 0 60566 12600.00000 0 11876592.734 7841601.693 -21145706.569 10 0 60566 13500.00000 0 9253520.738 8394258.519 -22219250.053 10 0 60566 14400.00000 0 6577115.394 9167770.801 -22860422.161 10 0 60566 15300.00000 0 3916473.289 10152917.224 -23056877.683 10 0 60566 16200.00000 0 1338413.250 11328345.939 -22804936.650 10 0 60566 17100.00000 0 -1095082.213 12661369.547 -22109645.027 10 0 60566 18000.00000 0 -3329212.107 14109253.551 -20984665.234 10 0 60566 18900.00000 0 -5318392.260 15620943.791 -19451999.460 10 0 60566 19800.00000 0 -7027897.523 17139160.097 -17541551.822 10 0 60566 20700.00000 0 -8435044.222 18602768.094 -15290538.498 10 0 60566 21600.00000 0 -9529865.700 19949329.601 -12742757.714 10 0 60566 22500.00000 0 -10315254.923 21117724.736 -9947734.065 10 0 60566 23400.00000 0 -10806570.467 22050735.917 -6959754.008 10 0 60566 24300.00000 0 -11030724.474 22697485.669 -3836811.365 10 0 60566 25200.00000 0 -11024792.782 23015626.393 -639483.308 10 0 60566 26100.00000 0 -10834207.141 22973190.621 2570241.379 10 0 60566 27000.00000 0 -10510606.763 22550024.585 5730159.195 10 0 60566 27900.00000 0 -10109440.398 21738745.346 8779051.045 10 0 60566 28800.00000 0 -9687420.320 20545181.516 11657860.702 10 0 60566 29700.00000 0 -9299935.492 18988279.149 14310830.358 10 0 60566 30600.00000 0 -8998532.680 17099476.404 16686571.934 10 0 60566 31500.00000 0 -8828571.199 14921572.527 18739054.180 10 0 60566 32400.00000 0 -8827149.643 12507137.447 20428487.314 10 0 60566 33300.00000 0 -9021391.564 9916527.025 21722088.883 10 0 60566 34200.00000 0 -9427162.168 7215585.183 22594716.730 10 0 60566 35100.00000 0 -10048270.279 4473126.833 23029357.295 10 0 60566 36000.00000 0 -10876189.859 1758304.546 23017460.019 10 0 60566 36900.00000 0 -11890313.894 -862033.209 22559111.237 10 0 60566 37800.00000 0 -13058731.502 -3325884.009 21663043.663 10 0 60566 38700.00000 0 -14339497.374 -5578429.126 20346480.456 10 0 60566 39600.00000 0 -15682342.078 -7574070.526 18634815.715 10 0 60566 40500.00000 0 -17030753.083 -9278082.959 16561136.288 10 0 60566 41400.00000 0 -18324340.547 -10667812.496 14165592.766 10 0 60566 42300.00000 0 -19501389.339 -11733371.435 11494630.576 10 0 60566 43200.00000 0 -20501490.403 -12477800.403 8600095.056 10 0 60566 44100.00000 0 -21268140.502 -12916690.749 5538227.135 10 0 60566 45000.00000 0 -21751200.080 -13077283.113 2368568.912 10 0 60566 45900.00000 0 -21909104.450 -12997080.368 -847199.430 10 0 60566 46800.00000 0 -21710733.503 -12722034.018 -4046468.137 10 0 60566 47700.00000 0 -21136859.404 -12304381.485 -7166927.271 10 0 60566 48600.00000 0 -20181109.568 -11800226.925 -10147791.811 10 0 60566 49500.00000 0 -18850402.836 -11266969.290 -12930997.303 10 0 60566 50400.00000 0 -17164839.340 -10760687.974 -15462341.393 10 0 60566 51300.00000 0 -15157047.875 -10333598.173 -17692547.952 10 0 60566 52200.00000 0 -12871017.806 -10031684.903 -19578232.225 10 0 60566 53100.00000 0 -10360464.430 -9892616.766 -21082747.724 10 0 60566 54000.00000 0 -7686796.430 -9944028.350 -22176898.293 10 0 60566 54900.00000 0 -4916770.663 -10202244.084 -22839501.764 10 0 60566 55800.00000 0 -2119932.486 -10671497.411 -23057794.746 10 0 60566 56700.00000 0 634051.568 -11343677.868 -22827671.475 10 0 60566 57600.00000 0 3278057.800 -12198616.247 -22153752.880 10 0 60566 58500.00000 0 5750055.638 -13204895.186 -21049285.454 10 0 60566 59400.00000 0 7995438.946 -14321150.471 -19535872.670 10 0 60566 60300.00000 0 9969042.580 -15497807.741 -17643044.902 10 0 60566 61200.00000 0 11636761.798 -16679181.082 -15407676.784 10 0 60566 62100.00000 0 12976708.914 -17805845.009 -12873263.770 10 0 60566 63000.00000 0 13979861.023 -18817179.929 -10089072.251 10 0 60566 63900.00000 0 14650173.866 -19653984.125 -7109179.969 10 0 60566 64800.00000 0 15004159.190 -20261042.573 -3991425.472 10 0 60566 65700.00000 0 15069945.297 -20589544.880 -796286.992 10 0 60566 66600.00000 0 14885861.884 -20599251.012 2414287.478 10 0 60566 67500.00000 0 14498609.997 -20260314.131 5578076.401 10 0 60566 68400.00000 0 13961095.008 -19554684.218 8633784.278 10 0 60566 69300.00000 0 13330014.353 -18477033.713 11522221.699 10 0 60566 70200.00000 0 12663301.708 -17035166.232 14187443.547 10 0 60566 71100.00000 0 12017535.007 -15249890.905 16577824.004 10 0 60566 72000.00000 0 11445416.955 -13154366.925 18647048.277 10 0 60566 72900.00000 0 10993433.487 -10792944.684 20355002.696 10 0 60566 73800.00000 0 10699788.108 -8219550.502 21668546.794 10 0 60566 74700.00000 0 10592698.500 -5495680.713 22562153.088 10 0 60566 75600.00000 0 10689126.866 -2688086.745 23018402.692 10 0 60566 76500.00000 0 10993997.493 133754.400 23028327.425 10 0 60566 77400.00000 0 11499935.030 2900281.003 22591591.605 10 0 60566 78300.00000 0 12187535.402 5544490.772 21716509.583 10 0 60566 79200.00000 0 13026159.303 8004479.870 20419897.782 10 0 60566 80100.00000 0 13975216.366 10225772.320 18726763.017 10 0 60566 81000.00000 0 14985887.557 12163343.537 16669831.798 10 0 60566 81900.00000 0 16003214.697 13783254.064 14288928.353 10 0 60566 82800.00000 0 16968470.160 15063825.305 11630212.172 10 0 60566 83700.00000 0 17821707.533 15996307.965 8745288.774 10 0 60566 84600.00000 0 18504385.722 16585014.959 5690210.237 10 0 60566 85500.00000 0 18961955.259 16846913.032 2524384.661 10 0 60567 0.00000 0 19146296.605 16810690.313 -690583.821 10 0 60567 900.00000 0 19017906.081 16515339.304 -3892103.028 10 0 60567 1800.00000 0 18547735.212 16008315.823 -7017819.906 10 0 60567 2700.00000 0 17718604.390 15343352.528 -10006847.519 10 0 60567 3600.00000 0 16526129.144 14578020.611 -12800962.357 10 0 60567 4500.00000 0 14979118.652 13771144.155 -15345749.012 10 0 60567 5400.00000 0 13099428.500 12980177.846 -17591668.549 10 0 60567 6300.00000 0 10921273.062 12258660.168 -19495028.918 10 0 60567 7200.00000 0 8490025.934 11653850.727 -21018838.002 10 0 60567 8100.00000 0 5860558.535 11204652.175 -22133522.595 10 0 60567 9000.00000 0 3095186.396 10939904.711 -22817499.553 10 0 60567 9900.00000 0 261309.089 10877125.013 -23057588.524 10 0 60567 10800.00000 0 -2571157.730 11021742.248 -22849258.979 10 0 60567 11700.00000 0 -5332451.238 11366862.634 -22196707.608 10 0 60567 12600.00000 0 -7955620.556 11893571.533 -21112765.439 10 0 60567 13500.00000 0 -10379066.041 12571759.362 -19618637.328 10 0 60567 14400.00000 0 -12548854.099 13361435.608 -17743479.607 10 0 60567 15300.00000 0 -14420712.450 14214474.793 -15523824.664 10 0 60567 16200.00000 0 -15961624.344 15076720.225 -13002864.119 10 0 60567 17100.00000 0 -17150957.091 15890356.495 -10229604.776 10 0 60567 18000.00000 0 -17981079.708 16596450.556 -7257913.997 10 0 60567 18900.00000 0 -18457445.885 17137554.327 -4145473.144 10 0 60567 19800.00000 0 -18598140.698 17460259.268 -952659.391 10 0 60567 20700.00000 0 -18432911.767 17517595.592 2258622.385 10 0 60567 21600.00000 0 -18001727.002 17271175.305 5426135.125 10 0 60567 22500.00000 0 -17352920.580 16692989.148 8488509.622 10 0 60567 23400.00000 0 -16541005.768 15766781.966 11386426.115 10 0 60567 24300.00000 0 -15624246.863 14488948.659 14063755.125 10 0 60567 25200.00000 0 -14662092.213 12868912.773 16468636.079 10 0 60567 26100.00000 0 -13712575.856 10928971.211 18554473.578 10 0 60567 27000.00000 0 -12829796.323 8703610.553 20280832.894 10 0 60567 27900.00000 0 -12061577.799 6238322.187 21614218.148 10 0 60567 28800.00000 0 -11447411.150 3587963.999 22528718.839 10 0 60567 29700.00000 0 -11016760.693 814734.982 23006512.707 10 0 60567 30600.00000 0 -10787807.490 -2014155.018 23038215.452 10 0 60567 31500.00000 0 -10766681.952 -4829025.536 22623070.413 10 0 60567 32400.00000 0 -10947218.404 -7560372.045 21768974.082 10 0 60567 33300.00000 0 -11311242.670 -10141510.506 20492336.126 10 0 60567 34200.00000 0 -11829381.622 -12511111.230 18817775.512 10 0 60567 35100.00000 0 -12462361.835 -14615517.503 16777657.323 10 0 60567 36000.00000 0 -13162743.846 -16410752.867 14411477.859 10 0 60567 36900.00000 0 -13877019.927 -17864133.367 11765108.668 10 0 60567 37800.00000 0 -14547987.553 -18955417.211 8889913.078 10 0 60567 38700.00000 0 -15117298.586 -19677443.317 5841751.664 10 0 60567 39600.00000 0 -15528076.132 -20036231.619 2679895.636 10 0 60567 40500.00000 0 -15727487.662 -20050540.622 -534130.550 10 0 60567 41400.00000 0 -15669164.257 -19750900.838 -3737754.308 10 0 60567 42300.00000 0 -15315362.074 -19178165.136 -6868583.303 10 0 60567 43200.00000 0 -14638772.818 -18381637.810 -9865631.987 10 0 60567 44100.00000 0 -13623904.909 -17416862.300 -12670521.091 10 0 60567 45000.00000 0 -12267975.300 -16343162.185 -15228625.368 10 0 60567 45900.00000 0 -10581272.944 -15221040.588 -17490146.110 10 0 60567 46800.00000 0 -8586977.416 -14109548.996 -19411086.725 10 0 60567 47700.00000 0 -6320439.579 -13063737.634 -20954111.832 10 0 60567 48600.00000 0 -3827953.993 -12132295.604 -22089273.056 10 0 60567 49500.00000 0 -1165074.233 -11355480.632 -22794587.605 10 0 60567 50400.00000 0 1605458.459 -10763425.479 -23056458.909 10 0 60567 51300.00000 0 4416086.765 -10374891.821 -22869931.869 10 0 60567 52200.00000 0 7197010.346 -10196523.095 -22238778.593 10 0 60567 53100.00000 0 9878853.373 -10222626.637 -21175413.836 10 0 60567 54000.00000 0 12395315.976 -10435492.912 -19700642.618 10 0 60567 54900.00000 0 14685699.981 -10806237.091 -17843245.620 10 0 60567 55800.00000 0 16697204.786 -11296126.255 -15639411.028 10 0 60567 56700.00000 0 18386899.050 -11858335.270 -13132024.311 10 0 60567 57600.00000 0 19723287.518 -12440056.452 -10369830.030 10 0 60567 58500.00000 0 20687409.270 -12984873.515 -7406482.203 10 0 60567 59400.00000 0 21273423.296 -13435299.351 -4299501.774 10 0 60567 60300.00000 0 21488658.660 -13735370.480 -1109161.436 10 0 60567 61200.00000 0 21353128.802 -13833188.811 2102680.554 10 0 60567 62100.00000 0 20898531.762 -13683303.703 5273775.083 10 0 60567 63000.00000 0 20166779.444 -13248834.102 8342682.536 10 0 60567 63900.00000 0 19208118.424 -12503241.529 11249955.847 10 0 60567 64800.00000 0 18078921.613 -11431679.266 13939283.850 10 0 60567 65700.00000 0 16839243.484 -10031860.792 16358573.471 10 0 60567 66600.00000 0 15550241.187 -8314410.449 18460950.512 10 0 60567 67500.00000 0 14271569.086 -6302680.706 20205660.506 10 0 60567 68400.00000 0 13058855.232 -4032042.350 21558853.025 10 0 60567 69300.00000 0 11961364.652 -1548675.634 22494234.947 10 0 60567 70200.00000 0 11019946.585 1092089.174 22993580.586 10 0 60567 71100.00000 0 10265351.002 3827814.823 23047089.053 10 0 60567 72000.00000 0 9716984.568 6591300.817 22653581.846 10 0 60567 72900.00000 0 9382158.127 9313132.497 21820536.391 10 0 60567 73800.00000 0 9255857.498 11924331.304 20563954.082 10 0 60567 74700.00000 0 9321047.806 14358997.482 18908064.273 10 0 60567 75600.00000 0 9549499.280 16556836.320 16884868.660 10 0 60567 76500.00000 0 9903100.655 18465463.277 14533533.503 10 0 60567 77400.00000 0 10335605.656 20042391.972 11899640.184 10 0 60567 78300.00000 0 10794739.447 21256621.759 9034307.544 10 0 60567 79200.00000 0 11224576.393 22089757.962 5993202.291 10 0 60567 80100.00000 0 11568088.374 22536617.221 2835456.366 10 0 60567 81000.00000 0 11769755.217 22605291.964 -377487.537 10 0 60567 81900.00000 0 11778125.625 22316670.990 -3583079.314 10 0 60567 82800.00000 0 11548218.690 21703436.239 -6718889.254 10 0 60567 83700.00000 0 11043662.606 20808578.366 -9723835.227 10 0 60567 84600.00000 0 10238478.233 19683494.338 -12539384.031 10 0 60567 85500.00000 0 9118430.332 18385748.240 -15110702.188 10 0 60568 0.00000 0 7681887.915 16976590.998 -17387732.424 10 0 60568 900.00000 0 5940155.251 15518343.942 -19326175.227 10 0 60568 1800.00000 0 3917260.537 14071759.475 -20888352.789 10 0 60568 2700.00000 0 1649207.839 12693468.231 -22043942.478 10 0 60568 3600.00000 0 -817274.945 11433622.450 -22770562.653 10 0 60568 4500.00000 0 -3426440.596 10333833.917 -23054201.174 10 0 60568 5400.00000 0 -6115608.328 9425492.745 -22889478.824 10 0 60568 6300.00000 0 -8817543.845 8728536.714 -22279743.338 10 0 60568 7200.00000 0 -11463034.584 8250721.581 -21236993.108 10 0 60568 8100.00000 0 -13983553.180 7987421.450 -19781632.877 10 0 60568 9000.00000 0 -16313898.758 7921965.936 -17942066.892 10 0 60568 9900.00000 0 -18394706.729 8026498.291 -15754138.023 10 0 60568 10800.00000 0 -20174723.551 8263316.820 -13260424.198 10 0 60568 11700.00000 0 -21612752.786 8586641.782 -10509406.126 10 0 60568 12600.00000 0 -22679192.628 8944732.272 -7554522.692 10 0 60568 13500.00000 0 -23357102.148 9282263.058 -4453132.501 10 0 60568 14400.00000 0 -23642753.226 9542860.644 -1265401.726 10 0 60568 15300.00000 0 -23545646.520 9671691.336 1946860.152 10 0 60568 16200.00000 0 -23087992.133 9617992.081 5121394.255 10 0 60568 17100.00000 0 -22303677.874 9337437.411 8196692.988 10 0 60568 18000.00000 0 -21236769.165 8794242.830 11113184.516 10 0 60568 18900.00000 0 -19939603.971 7962916.049 13814378.611 10 0 60568 19800.00000 0 -18470562.705 6829582.253 16247952.340 10 0 60568 20700.00000 0 -16891606.323 5392827.276 18366755.281 10 0 60568 21600.00000 0 -15265685.142 3664022.545 20129715.649 10 0 60568 22500.00000 0 -13654126.025 1667117.027 21502630.632 10 0 60568 23400.00000 0 -12114106.309 -562096.639 22458826.328 10 0 60568 24300.00000 0 -10696319.127 -2977213.042 22979675.066 10 0 60568 25200.00000 0 -9442926.796 -5522892.715 23054960.389 10 0 60568 26100.00000 0 -8385887.175 -8136920.936 22683082.515 10 0 60568 27000.00000 0 -7545722.489 -10752563.099 21871099.919 10 0 60568 27900.00000 0 -6930782.000 -13301120.668 20634605.385 10 0 60568 28800.00000 0 -6537029.548 -15714582.972 18997437.892 10 0 60568 29700.00000 0 -6348365.229 -17928265.706 16991234.579 10 0 60568 30600.00000 0 -6337468.208 -19883326.920 14654830.132 10 0 60568 31500.00000 0 -6467125.778 -21529055.738 12033513.908 10 0 60568 32400.00000 0 -6691993.053 -22824837.992 9178158.138 10 0 60568 33300.00000 0 -6960709.253 -23741715.963 6144233.326 10 0 60568 34200.00000 0 -7218280.980 -24263476.029 2990729.651 10 0 60568 35100.00000 0 -7408631.093 -24387217.814 -220994.567 10 0 60568 36000.00000 0 -7477204.292 -24123380.163 -3428414.420 10 0 60568 36900.00000 0 -7373517.662 -23495222.412 -6569065.624 10 0 60568 37800.00000 0 -7053546.517 -22537782.685 -9581772.332 10 0 60568 38700.00000 0 -6481842.674 -21296357.373 -12407850.315 10 0 60568 39600.00000 0 -5633293.731 -19824566.480 -14992260.742 10 0 60568 40500.00000 0 -4494447.238 -18182087.226 -17284690.948 10 0 60568 41400.00000 0 -3064342.383 -16432152.341 -19240540.271 10 0 60568 42300.00000 0 -1354812.915 -14638919.356 -20821791.209 10 0 60568 43200.00000 0 609752.323 -12864822.308 -21997748.792 10 0 60568 44100.00000 0 2793181.832 -11168017.630 -22745633.981 10 0 60568 45000.00000 0 5148794.826 -9600031.550 -23051020.035 10 0 60568 45900.00000 0 7621122.415 -8203707.325 -22908104.092 10 0 60568 46800.00000 0 10148004.814 -7011537.516 -22319809.515 10 0 60568 47700.00000 0 12662977.084 -6044449.953 -21297717.891 10 0 60568 48600.00000 0 15097844.090 -5311096.680 -19861832.840 10 0 60568 49500.00000 0 17385337.636 -4807673.821 -18040180.929 10 0 60568 50400.00000 0 19461745.470 -4518278.010 -15868258.070 10 0 60568 51300.00000 0 21269403.237 -4415782.484 -13388332.602 10 0 60568 52200.00000 0 22758946.308 -4463194.228 -10648618.914 10 0 60568 53100.00000 0 23891228.525 -4615433.556 -7702337.906 10 0 60568 54000.00000 0 24638828.886 -4821459.936 -4606682.645 10 0 60568 54900.00000 0 24987084.435 -5026653.550 -1421709.316 10 0 60568 55800.00000 0 24934607.364 -5175351.585 1790824.991 10 0 60568 56700.00000 0 24493265.863 -5213431.945 4968655.266 10 0 60568 57600.00000 0 23687630.492 -5090835.310 8050209.444 10 0 60568 58500.00000 0 22553910.020 -4763919.207 10975794.189 10 0 60568 59400.00000 0 21138421.774 -4197544.934 13688743.146 10 0 60568 60300.00000 0 19495660.627 -3366809.402 16136506.042 10 0 60568 61200.00000 0 17686047.228 -2258348.817 18271658.297 10 0 60568 62100.00000 0 15773449.102 -871158.900 20052812.405 10 0 60568 63000.00000 0 13822577.345 783103.685 21445414.283 10 0 60568 63900.00000 0 11896366.676 2680352.598 22422409.881 10 0 60568 64800.00000 0 10053447.061 4784827.785 22964769.715 10 0 60568 65700.00000 0 8345811.324 7050346.566 23061861.443 10 0 60568 66600.00000 0 6816775.117 9421999.798 22711663.239 10 0 60568 67500.00000 0 5499313.589 11838224.638 21920813.406 10 0 60568 68400.00000 0 4414843.751 14233169.689 20704494.505 10 0 60568 69300.00000 0 3572503.202 16539255.767 19086153.160 10 0 60568 70200.00000 0 2968955.428 18689827.044 17097059.688 10 0 60568 71100.00000 0 2588730.075 20621782.905 14775714.705 10 0 60568 72000.00000 0 2405084.186 22278081.013 12167112.896 10 0 60568 72900.00000 0 2381348.435 23610006.821 9321877.129 10 0 60568 73800.00000 0 2472701.732 24579113.950 6295278.907 10 0 60568 74700.00000 0 2628299.105 25158753.171 3146163.841 10 0 60568 75600.00000 0 2793662.382 25335124.792 -64196.880 10 0 60568 76500.00000 0 2913231.626 25107809.183 -3273306.196 10 0 60568 77400.00000 0 2932967.986 24489752.273 -6418667.737 10 0 60568 78300.00000 0 2802896.158 23506706.107 -9439014.200 10 0 60568 79200.00000 0 2479477.018 22196147.838 -12275512.323 10 0 60568 80100.00000 0 1927708.161 20605722.898 -14872919.628 10 0 60568 81000.00000 0 1122861.757 18791278.426 -17180669.273 10 0 60568 81900.00000 0 51784.711 16814570.446 -19153860.991 10 0 60568 82800.00000 0 -1286295.013 14740742.051 -20754138.259 10 0 60568 83700.00000 0 -2879490.879 12635679.265 -21950434.430 10 0 60568 84600.00000 0 -4703521.462 10563356.087 -22719573.521 10 0 60568 85500.00000 0 -6722504.663 8583280.224 -23046714.420 99